EW0295 Weather Reports


time (UTC)temp
C
wind
direction
speed
KPH
gust
KPH
rain 1hr
cm
rain 24hr
cm
rain mn
cm
humidity
%
barometer
mb
20260507093603 13 190 3.2 12.9 0.00 0.00 0.00 61 1016.7
20260507092703 13 201 3.2 9.7 0.00 0.00 0.00 63 1016.6
20260507091803 13 201 1.6 8.0 0.00 0.00 0.00 62 1016.6
20260507091117 13 184 3.2 9.7 0.00 0.00 0.00 65 1016.6
20260507090004 12 207 1.6 9.7 0.00 0.00 0.00 67 1016.5
20260507085403 12 212 1.6 8.0 0.00 0.00 0.00 68 1016.6
20260507084503 12 185 1.6 9.7 0.00 0.00 0.00 68 1016.5
20260507083603 12 164 1.6 9.7 0.00 0.00 0.00 69 1016.5
20260507082703 11 218 1.6 4.8 0.00 0.00 0.00 70 1016.5
20260507081803 12 212 1.6 6.4 0.00 0.00 0.00 70 1016.5
20260507081117 11 245 1.6 4.8 0.00 0.00 0.00 70 1016.4
20260507080003 11 191 1.6 8.0 0.00 0.00 0.00 71 1016.3
20260507075403 11 149 3.2 8.0 0.00 0.00 0.00 71 1016.2
20260507074503 11 173 1.6 6.4 0.00 0.00 0.00 73 1016.2
20260507073603 11 201 1.6 6.4 0.00 0.00 0.00 74 1016.1
20260507072703 11 0 0.0 3.2 0.00 0.00 0.00 75 1016.1
20260507071803 10 259 1.6 6.4 0.00 0.00 0.00 75 1016.2
20260507070903 10 250 1.6 4.8 0.00 0.00 0.00 78 1016.1
20260507070216 10 0 0.0 8.0 0.00 0.00 0.00 78 1016.1
20260507065616 10 173 1.6 8.0 0.00 0.00 0.00 78 1016.0
20260507064503 9 0 0.0 4.8 0.00 0.00 0.00 80 1016.0
20260507063603 8 0 0.0 4.8 0.00 0.00 0.00 81 1016.0
20260507062703 8 0 0.0 3.2 0.00 0.00 0.00 82 1015.9
20260507061803 8 237 1.6 6.4 0.00 0.00 0.00 82 1015.8
20260507060903 8 246 1.6 8.0 0.00 0.00 0.00 82 1015.7
20260507060003 8 0 0.0 0.0 0.00 0.00 0.00 82 1015.6
20260507055403 7 0 0.0 0.0 0.00 0.00 0.00 84 1015.6
20260507054503 6 0 0.0 0.0 0.00 0.00 0.00 83 1015.5
20260507053603 6 0 0.0 0.0 0.00 0.00 0.00 83 1015.3
20260507052917 6 0 0.0 0.0 0.00 0.00 0.00 82 1015.3
20260507051803 6 0 0.0 0.0 0.00 0.00 0.00 81 1015.3
20260507050903 6 0 0.0 0.0 0.00 0.00 0.00 81 1015.1
20260507050219 6 0 0.0 0.0 0.00 0.00 0.00 80 1015.1
20260507045403 5 0 0.0 0.0 0.00 0.00 0.00 80 1015.1
20260507044503 6 0 0.0 0.0 0.00 0.00 0.00 80 1015.1
20260507043603 6 0 0.0 0.0 0.00 0.00 0.00 80 1015.0
20260507042703 6 0 0.0 0.0 0.00 0.00 0.00 82 1014.9
20260507041803 6 0 0.0 0.0 0.00 0.00 0.00 82 1014.8
20260507040903 5 0 0.0 0.0 0.00 0.00 0.00 82 1014.7
20260507040003 5 0 0.0 0.0 0.00 0.00 0.00 81 1014.6
20260507035618 4 0 0.0 0.0 0.00 0.00 0.00 81 1014.6
20260507034718 4 0 0.0 0.0 0.00 0.00 0.00 81 1014.6
20260507033603 3 0 0.0 0.0 0.00 0.00 0.00 81 1014.7
20260507032703 3 0 0.0 0.0 0.00 0.00 0.00 80 1014.6
20260507031803 3 0 0.0 0.0 0.00 0.00 0.00 81 1014.6
20260507030903 3 0 0.0 0.0 0.00 0.00 0.00 81 1014.6
20260507030003 3 0 0.0 0.0 0.00 0.00 0.00 80 1014.6
20260507025403 3 0 0.0 0.0 0.00 0.00 0.00 80 1014.5
20260507024503 3 0 0.0 0.0 0.00 0.00 0.00 80 1014.4
20260507023603 3 0 0.0 0.0 0.00 0.00 0.00 80 1014.4
20260507022916 3 0 0.0 0.0 0.00 0.00 0.00 80 1014.3
20260507021803 3 0 0.0 0.0 0.00 0.00 0.00 79 1014.2
20260507021119 3 0 0.0 0.0 0.00 0.00 0.00 79 1014.2
20260507020003 4 0 0.0 0.0 0.00 0.00 0.00 79 1014.3
20260507015403 4 0 0.0 0.0 0.00 0.00 0.00 79 1014.2
20260507014717 4 0 0.0 0.0 0.00 0.00 0.00 78 1014.2
20260507013603 4 0 0.0 1.6 0.00 0.00 0.00 78 1014.0
20260507012703 5 0 0.0 1.6 0.00 0.00 0.00 78 1014.0
20260507011803 5 0 0.0 0.0 0.00 0.00 0.00 78 1014.0
20260507010003 5 0 0.0 0.0 0.00 0.00 0.00 77 1014.0
20260507005403 5 0 0.0 0.0 0.00 0.00 0.00 76 1014.0
20260507004503 5 0 0.0 0.0 0.00 0.00 0.00 76 1014.0
20260507003603 6 0 0.0 1.6 0.00 0.00 0.00 76 1014.0
20260507002915 6 0 0.0 1.6 0.00 0.00 0.00 76 1014.0
20260507001803 6 0 0.0 1.6 0.00 0.00 0.00 76 1013.9
20260507000903 6 0 0.0 1.6 0.00 0.00 0.00 75 1013.9
20260507000003 6 0 0.0 3.2 0.00 0.00 0.00 74 1013.8
20260506235617 6 0 0.0 3.2 0.00 0.00 0.00 73 1013.8
20260506234503 6 0 0.0 0.0 0.00 0.00 0.00 75 1013.7
20260506233816 6 0 0.0 0.0 0.00 0.00 0.00 74 1013.7
20260506232703 7 0 0.0 1.6 0.00 0.00 0.00 74 1013.7
20260506231804 6 0 0.0 1.6 0.00 0.00 0.00 73 1013.6
20260506230903 6 0 0.0 1.6 0.00 0.00 0.00 74 1013.6
20260506230217 6 0 0.0 1.6 0.00 0.00 0.00 74 1013.6
20260506225403 6 0 0.0 1.6 0.00 0.00 0.00 73 1013.5
20260506224503 6 0 0.0 1.6 0.00 0.00 0.00 73 1013.5
20260506223603 6 0 0.0 1.6 0.00 0.00 0.00 74 1013.5
20260506222703 6 0 0.0 3.2 0.00 0.00 0.00 73 1013.4
20260506221803 6 0 0.0 1.6 0.00 0.00 0.00 73 1013.4
20260506220903 7 0 0.0 1.6 0.00 0.00 0.00 73 1013.4
20260506220003 7 0 0.0 3.2 0.00 0.00 0.00 72 1013.4
20260506215403 7 0 0.0 6.4 0.00 0.00 0.00 71 1013.4
20260506214503 7 18 1.6 6.4 0.00 0.00 0.00 71 1013.4
20260506213603 7 25 1.6 8.0 0.00 0.00 0.00 71 1013.3
20260506212918 7 28 3.2 9.7 0.00 0.00 0.00 71 1013.3
20260506212018 7 16 3.2 8.0 0.00 0.00 0.00 70 1013.3
20260506210903 7 2 3.2 11.3 0.00 0.00 0.00 70 1013.2
20260506210003 8 352 4.8 11.3 0.00 0.00 0.00 69 1013.2
20260506205403 8 344 4.8 12.9 0.00 0.00 0.00 69 1013.1
20260506204503 8 340 4.8 9.7 0.00 0.00 0.00 70 1013.1
20260506203603 9 340 1.6 6.4 0.00 0.00 0.00 70 1013.0
20260506202703 9 351 3.2 9.7 0.00 0.00 0.00 71 1013.0
20260506201803 10 0 0.0 1.6 0.00 0.00 0.00 75 1012.9
20260506200903 10 0 0.0 0.0 0.00 0.00 0.00 74 1012.8
20260506200003 10 0 0.0 0.0 0.00 0.00 0.00 73 1012.8
20260506195403 10 0 0.0 0.0 0.00 0.00 0.00 73 1012.8
20260506194503 10 0 0.0 0.0 0.00 0.00 0.00 73 1012.6
20260506193603 10 0 0.0 3.2 0.00 0.00 0.00 73 1012.5
20260506192703 10 0 0.0 3.2 0.00 0.00 0.00 73 1012.6
20260506192017 10 0 0.0 1.6 0.00 0.00 0.00 73 1012.5
20260506190903 10 0 0.0 3.2 0.00 0.00 0.00 72 1012.2
20260506190215 10 0 0.0 3.2 0.00 0.00 0.00 72 1012.1
20260506185619 10 103 1.6 4.8 0.00 0.00 0.00 72 1012.0
20260506184503 10 0 0.0 4.8 0.00 0.00 0.00 70 1012.0
20260506183603 11 105 1.6 8.0 0.00 0.00 0.00 69 1011.9
20260506182703 11 0 0.0 4.8 0.00 0.00 0.00 68 1011.8
20260506181803 11 90 1.6 4.8 0.00 0.00 0.00 68 1011.7
20260506180903 11 103 1.6 6.4 0.00 0.00 0.00 64 1011.5
20260506180004 11 125 1.6 6.4 0.00 0.00 0.00 57 1011.5
20260506175403 12 123 1.6 6.4 0.00 0.00 0.00 54 1011.4
20260506174503 12 121 1.6 6.4 0.00 0.00 0.00 52 1011.4
20260506173603 12 129 1.6 6.4 0.00 0.00 0.00 53 1011.3
20260506172703 12 113 1.6 8.0 0.00 0.00 0.00 55 1011.3
20260506171803 12 0 0.0 3.2 0.00 0.00 0.00 55 1011.2
20260506170903 12 98 1.6 4.8 0.00 0.00 0.00 55 1011.2
20260506170003 12 91 1.6 4.8 0.00 0.00 0.00 54 1011.2
20260506165403 12 94 1.6 6.4 0.00 0.00 0.00 55 1011.2
20260506164503 12 105 3.2 6.4 0.00 0.00 0.00 55 1011.2
20260506163817 12 102 1.6 8.0 0.00 0.00 0.00 55 1011.2
20260506162916 12 94 3.2 8.0 0.00 0.00 0.00 56 1011.2
20260506161803 12 94 3.2 9.7 0.00 0.00 0.00 54 1011.2
20260506160903 12 95 1.6 8.0 0.00 0.00 0.00 55 1011.2
20260506160003 12 112 3.2 11.3 0.00 0.00 0.00 55 1011.2
20260506155403 12 110 3.2 8.0 0.00 0.00 0.00 55 1011.2
20260506154503 12 88 3.2 11.3 0.00 0.00 0.00 56 1011.3
20260506153603 12 67 1.6 11.3 0.00 0.00 0.00 54 1011.2
20260506152703 13 88 3.2 9.7 0.00 0.00 0.00 55 1011.2
20260506151803 13 68 4.8 12.9 0.00 0.00 0.00 54 1011.2
20260506151119 13 32 1.6 8.0 0.00 0.00 0.00 56 1011.2
20260506150218 13 344 3.2 8.0 0.00 0.00 0.00 56 1011.2
20260506145403 13 350 1.6 4.8 0.00 0.00 0.00 55 1011.2
20260506144503 13 25 3.2 8.0 0.00 0.00 0.00 54 1011.2
20260506143816 13 46 3.2 8.0 0.00 0.00 0.00 56 1011.2
20260506142703 13 10 3.2 11.3 0.00 0.00 0.00 56 1011.2
20260506141803 13 349 4.8 9.7 0.00 0.00 0.00 54 1011.2
20260506140903 13 342 3.2 9.7 0.00 0.00 0.00 54 1011.2
20260506140003 13 18 3.2 9.7 0.00 0.00 0.00 56 1011.2
20260506135617 13 62 1.6 9.7 0.00 0.00 0.00 56 1011.2
20260506134503 13 42 3.2 11.3 0.00 0.00 0.00 56 1011.2
20260506133603 13 75 3.2 9.7 0.00 0.00 0.00 57 1011.2
20260506132703 13 54 3.2 9.7 0.00 0.00 0.00 59 1011.3
20260506131803 12 80 4.8 9.7 0.00 0.00 0.00 58 1011.3
20260506131118 12 75 3.2 9.7 0.00 0.00 0.00 58 1011.3
20260506130003 12 16 3.2 12.9 0.00 0.00 0.00 58 1011.3
20260506125617 12 24 3.2 12.9 0.00 0.00 0.00 57 1011.3
20260506124503 12 35 3.2 11.3 0.00 0.00 0.00 57 1011.3
20260506123603 12 65 3.2 14.5 0.00 0.00 0.00 61 1011.3
20260506122703 12 340 3.2 8.0 0.00 0.00 0.00 61 1011.3
20260506121803 12 6 4.8 12.9 0.00 0.00 0.00 62 1011.4
20260506120903 12 10 6.4 14.5 0.00 0.00 0.00 62 1011.5
20260506120003 12 353 6.4 16.1 0.00 0.00 0.00 60 1011.4
20260506115403 12 31 3.2 17.7 0.00 0.00 0.00 63 1011.5
20260506114503 12 350 4.8 17.7 0.00 0.00 0.00 63 1011.4
20260506113603 12 347 4.8 16.1 0.00 0.00 0.00 62 1011.5
20260506112703 12 344 4.8 12.9 0.00 0.00 0.00 63 1011.5
20260506111803 12 27 6.4 16.1 0.00 0.00 0.00 64 1011.6
20260506110903 12 360 6.4 11.3 0.00 0.00 0.00 64 1011.6
20260506110003 12 343 4.8 14.5 0.00 0.00 0.00 60 1011.7
20260506105403 12 350 4.8 12.9 0.00 0.00 0.00 61 1011.7
20260506104503 13 66 3.2 11.3 0.00 0.00 0.00 59 1011.7
20260506103603 13 67 6.4 14.5 0.00 0.00 0.00 58 1011.7
20260506102703 13 43 6.4 14.5 0.00 0.00 0.00 55 1011.6
20260506101803 13 80 4.8 16.1 0.00 0.00 0.00 55 1011.6
20260506100903 13 30 4.8 16.1 0.00 0.00 0.00 57 1011.7
20260506100003 12 98 4.8 16.1 0.00 0.00 0.00 57 1011.7
20260506095403 12 83 4.8 16.1 0.00 0.00 0.00 61 1011.8
20260506094503 12 100 6.4 14.5 0.00 0.00 0.00 59 1011.7